| time (UTC) | temp F | wind direction | speed knots | gust knots | rain 1hr in | rain 24hr in | rain mn in | humidity % | barometer mb |
| 20260906065403 | 75 | 166 | 2.6 | 6.1 | 0.00 | 0.00 | 0.00 | 59 | 1019.9 |
| 20260906064503 | 74 | 166 | 2.6 | 5.2 | 0.00 | 0.00 | 0.00 | 61 | 1019.9 |
| 20260906063603 | 72 | 130 | 1.7 | 3.5 | 0.00 | 0.00 | 0.00 | 63 | 1019.9 |
| 20260906062724 | 71 | 91 | 1.7 | 4.3 | 0.00 | 0.00 | 0.00 | 66 | 1019.9 |
| 20260906061803 | 70 | 78 | 3.5 | 5.2 | 0.00 | 0.00 | 0.00 | 67 | 1020.0 |
| 20260906060924 | 69 | 79 | 3.5 | 5.2 | 0.00 | 0.00 | 0.00 | 69 | 1019.8 |
| 20260906060003 | 69 | 78 | 3.5 | 6.1 | 0.00 | 0.00 | 0.00 | 69 | 1020.0 |
| 20260906055403 | 69 | 97 | 4.3 | 7.8 | 0.00 | 0.00 | 0.00 | 69 | 1019.8 |
| 20260906054524 | 69 | 97 | 3.5 | 7.8 | 0.00 | 0.00 | 0.00 | 68 | 1019.8 |
| 20260906053603 | 71 | 141 | 3.5 | 5.2 | 0.00 | 0.00 | 0.00 | 67 | 1019.6 |
| 20260906052703 | 70 | 146 | 3.5 | 5.2 | 0.00 | 0.00 | 0.00 | 69 | 1019.8 |
| 20260906051824 | 69 | 125 | 4.3 | 6.1 | 0.00 | 0.00 | 0.00 | 69 | 1019.6 |
| 20260906050903 | 67 | 109 | 2.6 | 5.2 | 0.00 | 0.00 | 0.00 | 71 | 1019.6 |
| 20260906050003 | 67 | 86 | 3.5 | 6.1 | 0.00 | 0.00 | 0.00 | 71 | 1019.5 |
| 20260906045403 | 68 | 84 | 3.5 | 7.0 | 0.00 | 0.00 | 0.00 | 71 | 1019.3 |
| 20260906044503 | 68 | 92 | 3.5 | 6.1 | 0.00 | 0.00 | 0.00 | 71 | 1019.6 |
| 20260906043603 | 67 | 86 | 3.5 | 6.1 | 0.00 | 0.00 | 0.00 | 72 | 1019.7 |
| 20260906042703 | 67 | 83 | 4.3 | 6.1 | 0.00 | 0.00 | 0.00 | 72 | 1019.5 |
| 20260906041803 | 68 | 96 | 3.5 | 7.0 | 0.00 | 0.00 | 0.00 | 72 | 1019.0 |
| 20260906040903 | 68 | 75 | 3.5 | 7.0 | 0.00 | 0.00 | 0.00 | 72 | 1019.6 |
| 20260906040003 | 68 | 80 | 3.5 | 7.0 | 0.00 | 0.00 | 0.00 | 71 | 1019.3 |
| 20260906035403 | 68 | 79 | 3.5 | 7.0 | 0.00 | 0.00 | 0.00 | 70 | 1019.3 |
| 20260906034503 | 68 | 102 | 4.3 | 8.7 | 0.00 | 0.00 | 0.00 | 70 | 1019.2 |
| 20260906033603 | 69 | 110 | 3.5 | 7.0 | 0.00 | 0.00 | 0.00 | 68 | 1019.0 |
| 20260906032703 | 69 | 85 | 3.5 | 7.8 | 0.00 | 0.00 | 0.00 | 69 | 1019.0 |
| 20260906031803 | 69 | 107 | 3.5 | 7.8 | 0.00 | 0.00 | 0.00 | 68 | 1018.9 |
| 20260906030924 | 69 | 108 | 4.3 | 7.8 | 0.00 | 0.00 | 0.00 | 68 | 1019.0 |
| 20260906030003 | 69 | 91 | 4.3 | 9.6 | 0.00 | 0.00 | 0.00 | 67 | 1018.6 |
| 20260906025403 | 69 | 91 | 4.3 | 8.7 | 0.00 | 0.00 | 0.00 | 67 | 1018.9 |
| 20260906024503 | 69 | 81 | 4.3 | 8.7 | 0.00 | 0.00 | 0.00 | 67 | 1019.0 |
| 20260906023603 | 69 | 83 | 4.3 | 7.0 | 0.00 | 0.00 | 0.00 | 68 | 1018.9 |
| 20260906022724 | 70 | 88 | 3.5 | 5.2 | 0.00 | 0.00 | 0.00 | 67 | 1019.1 |
| 20260906021824 | 70 | 78 | 4.3 | 6.1 | 0.00 | 0.00 | 0.00 | 67 | 1019.2 |
| 20260906020903 | 70 | 92 | 3.5 | 5.2 | 0.00 | 0.00 | 0.00 | 66 | 1019.1 |
| 20260906020003 | 71 | 106 | 4.3 | 7.0 | 0.00 | 0.00 | 0.00 | 65 | 1018.8 |
| 20260906015424 | 71 | 100 | 4.3 | 7.8 | 0.00 | 0.00 | 0.00 | 65 | 1018.8 |
| 20260906014503 | 71 | 113 | 4.3 | 7.0 | 0.00 | 0.00 | 0.00 | 65 | 1019.0 |
| 20260906013603 | 71 | 114 | 5.2 | 8.7 | 0.00 | 0.00 | 0.00 | 65 | 1019.2 |
| 20260906012703 | 71 | 96 | 5.2 | 7.8 | 0.00 | 0.00 | 0.00 | 65 | 1019.0 |
| 20260906011824 | 71 | 79 | 5.2 | 8.7 | 0.00 | 0.00 | 0.00 | 65 | 1018.9 |
| 20260906010903 | 71 | 82 | 5.2 | 8.7 | 0.00 | 0.00 | 0.00 | 64 | 1019.2 |
| 20260906010024 | 71 | 75 | 5.2 | 7.8 | 0.00 | 0.00 | 0.00 | 64 | 1019.0 |
| 20260906005403 | 72 | 84 | 5.2 | 7.8 | 0.00 | 0.00 | 0.00 | 63 | 1019.2 |
| 20260906004503 | 72 | 85 | 4.3 | 8.7 | 0.00 | 0.00 | 0.00 | 63 | 1018.9 |
| 20260906003603 | 72 | 95 | 3.5 | 6.1 | 0.00 | 0.00 | 0.00 | 62 | 1019.1 |
| 20260906002703 | 73 | 89 | 3.5 | 5.2 | 0.00 | 0.00 | 0.00 | 62 | 1019.2 |
| 20260906001824 | 73 | 89 | 5.2 | 9.6 | 0.00 | 0.00 | 0.00 | 61 | 1018.9 |
| 20260906000903 | 73 | 94 | 7.0 | 11.3 | 0.00 | 0.00 | 0.00 | 61 | 1018.9 |
| 20260906000003 | 73 | 78 | 6.1 | 8.7 | 0.00 | 0.00 | 0.00 | 62 | 1018.9 |
| 20260905235403 | 73 | 74 | 5.2 | 8.7 | 0.00 | 0.00 | 0.00 | 62 | 1019.0 |
| 20260905234503 | 73 | 72 | 5.2 | 7.8 | 0.00 | 0.00 | 0.00 | 62 | 1018.9 |
| 20260905233603 | 73 | 78 | 5.2 | 7.8 | 0.00 | 0.00 | 0.00 | 61 | 1018.8 |
| 20260905232703 | 74 | 73 | 5.2 | 7.8 | 0.00 | 0.00 | 0.00 | 61 | 1018.8 |
| 20260905231803 | 74 | 76 | 5.2 | 7.0 | 0.00 | 0.00 | 0.00 | 61 | 1018.8 |
| 20260905230903 | 74 | 83 | 4.3 | 7.8 | 0.00 | 0.00 | 0.00 | 60 | 1018.8 |
| 20260905230003 | 74 | 88 | 4.3 | 7.8 | 0.00 | 0.00 | 0.00 | 60 | 1019.0 |
| 20260905225403 | 74 | 81 | 4.3 | 7.8 | 0.00 | 0.00 | 0.00 | 60 | 1018.6 |
| 20260905224503 | 74 | 88 | 4.3 | 6.1 | 0.00 | 0.00 | 0.00 | 60 | 1018.9 |
| 20260905223603 | 75 | 88 | 4.3 | 7.0 | 0.00 | 0.00 | 0.00 | 59 | 1018.8 |
| 20260905222703 | 74 | 71 | 5.2 | 8.7 | 0.00 | 0.00 | 0.00 | 60 | 1018.9 |
| 20260905221803 | 75 | 76 | 4.3 | 7.0 | 0.00 | 0.00 | 0.00 | 59 | 1018.8 |
| 20260905220903 | 75 | 89 | 4.3 | 6.1 | 0.00 | 0.00 | 0.00 | 58 | 1018.7 |
| 20260905220004 | 75 | 76 | 4.3 | 7.0 | 0.00 | 0.00 | 0.00 | 58 | 1018.6 |
| 20260905215403 | 76 | 77 | 4.3 | 6.1 | 0.00 | 0.00 | 0.00 | 58 | 1018.7 |
| 20260905214524 | 75 | 70 | 3.5 | 5.2 | 0.00 | 0.00 | 0.00 | 58 | 1018.6 |
| 20260905213624 | 76 | 78 | 3.5 | 5.2 | 0.00 | 0.00 | 0.00 | 58 | 1018.5 |
| 20260905212703 | 76 | 81 | 3.5 | 4.3 | 0.00 | 0.00 | 0.00 | 57 | 1018.5 |
| 20260905211803 | 76 | 86 | 3.5 | 5.2 | 0.00 | 0.00 | 0.00 | 56 | 1018.3 |
| 20260905210903 | 76 | 77 | 4.3 | 6.1 | 0.00 | 0.00 | 0.00 | 56 | 1018.4 |
| 20260905210003 | 77 | 92 | 3.5 | 4.3 | 0.00 | 0.00 | 0.00 | 54 | 1018.5 |
| 20260905205403 | 78 | 91 | 2.6 | 4.3 | 0.00 | 0.00 | 0.00 | 54 | 1018.3 |
| 20260905204524 | 78 | 73 | 2.6 | 5.2 | 0.00 | 0.00 | 0.00 | 53 | 1018.4 |
| 20260905203603 | 80 | 112 | 1.7 | 3.5 | 0.00 | 0.00 | 0.00 | 51 | 1018.2 |
| 20260905202703 | 79 | 119 | 2.6 | 3.5 | 0.00 | 0.00 | 0.00 | 51 | 1018.1 |
| 20260905201803 | 80 | 60 | 1.7 | 3.5 | 0.00 | 0.00 | 0.00 | 50 | 1018.2 |
| 20260905200903 | 81 | 129 | 2.6 | 4.3 | 0.00 | 0.00 | 0.00 | 48 | 1018.4 |
| 20260905200003 | 81 | 115 | 2.6 | 3.5 | 0.00 | 0.00 | 0.00 | 49 | 1018.1 |
| 20260905195403 | 81 | 104 | 2.6 | 3.5 | 0.00 | 0.00 | 0.00 | 49 | 1018.0 |
| 20260905194503 | 82 | 122 | 0.9 | 3.5 | 0.00 | 0.00 | 0.00 | 49 | 1018.1 |
| 20260905193624 | 83 | 113 | 0.9 | 4.3 | 0.00 | 0.00 | 0.00 | 48 | 1018.0 |
| 20260905192703 | 83 | 153 | 3.5 | 5.2 | 0.00 | 0.00 | 0.00 | 48 | 1017.7 |
| 20260905191803 | 83 | 220 | 5.2 | 9.6 | 0.00 | 0.00 | 0.00 | 48 | 1017.9 |
| 20260905190903 | 83 | 214 | 4.3 | 8.7 | 0.00 | 0.00 | 0.00 | 48 | 1017.8 |
| 20260905190003 | 84 | 230 | 5.2 | 10.4 | 0.00 | 0.00 | 0.00 | 46 | 1017.5 |
| 20260905185403 | 85 | 219 | 5.2 | 10.4 | 0.00 | 0.00 | 0.00 | 45 | 1017.4 |
| 20260905184503 | 85 | 165 | 6.1 | 11.3 | 0.00 | 0.00 | 0.00 | 44 | 1017.3 |
| 20260905183603 | 85 | 161 | 5.2 | 9.6 | 0.00 | 0.00 | 0.00 | 43 | 1017.2 |
| 20260905182703 | 86 | 167 | 4.3 | 8.7 | 0.00 | 0.00 | 0.00 | 42 | 1017.2 |
| 20260905181824 | 86 | 174 | 3.5 | 7.0 | 0.00 | 0.00 | 0.00 | 42 | 1016.9 |
| 20260905180903 | 86 | 179 | 3.5 | 7.0 | 0.00 | 0.00 | 0.00 | 42 | 1016.6 |
| 20260905180003 | 86 | 207 | 4.3 | 7.0 | 0.00 | 0.00 | 0.00 | 40 | 1016.5 |
| 20260905175403 | 87 | 209 | 4.3 | 7.0 | 0.00 | 0.00 | 0.00 | 39 | 1016.3 |
| 20260905174503 | 87 | 220 | 4.3 | 7.8 | 0.00 | 0.00 | 0.00 | 38 | 1016.3 |
| 20260905173603 | 88 | 235 | 5.2 | 7.8 | 0.00 | 0.00 | 0.00 | 36 | 1016.3 |
| 20260905172703 | 89 | 239 | 7.0 | 10.4 | 0.00 | 0.00 | 0.00 | 35 | 1016.4 |
| 20260905171803 | 90 | 243 | 7.0 | 10.4 | 0.00 | 0.00 | 0.00 | 34 | 1016.2 |
| 20260905170903 | 90 | 250 | 6.1 | 10.4 | 0.00 | 0.00 | 0.00 | 34 | 1016.3 |
| 20260905170003 | 91 | 245 | 7.8 | 13.0 | 0.00 | 0.00 | 0.00 | 34 | 1016.1 |
| 20260905165403 | 91 | 246 | 7.8 | 13.0 | 0.00 | 0.00 | 0.00 | 34 | 1016.1 |
| 20260905164503 | 91 | 253 | 7.8 | 13.0 | 0.00 | 0.00 | 0.00 | 34 | 1015.9 |
| 20260905163624 | 92 | 246 | 7.8 | 12.2 | 0.00 | 0.00 | 0.00 | 33 | 1015.9 |
| 20260905162724 | 92 | 246 | 8.7 | 13.9 | 0.00 | 0.00 | 0.00 | 33 | 1016.2 |
| 20260905161803 | 92 | 251 | 10.4 | 13.9 | 0.00 | 0.00 | 0.00 | 31 | 1015.9 |
| 20260905160924 | 93 | 246 | 9.6 | 14.8 | 0.00 | 0.00 | 0.00 | 30 | 1015.9 |
| 20260905160003 | 93 | 238 | 8.7 | 13.9 | 0.00 | 0.00 | 0.00 | 29 | 1015.8 |
| 20260905155403 | 93 | 245 | 10.4 | 14.8 | 0.00 | 0.00 | 0.00 | 29 | 1015.9 |
| 20260905154503 | 93 | 249 | 9.6 | 14.8 | 0.00 | 0.00 | 0.00 | 30 | 1015.9 |
| 20260905153624 | 93 | 238 | 8.7 | 13.9 | 0.00 | 0.00 | 0.00 | 31 | 1016.0 |
| 20260905152703 | 93 | 251 | 9.6 | 15.6 | 0.00 | 0.00 | 0.00 | 31 | 1015.6 |
| 20260905151803 | 94 | 240 | 7.8 | 13.9 | 0.00 | 0.00 | 0.00 | 31 | 1015.9 |
| 20260905150903 | 94 | 257 | 5.2 | 10.4 | 0.00 | 0.00 | 0.00 | 30 | 1016.0 |
| 20260905150024 | 94 | 246 | 7.0 | 12.2 | 0.00 | 0.00 | 0.00 | 30 | 1016.1 |
| 20260905145403 | 93 | 241 | 7.8 | 13.9 | 0.00 | 0.00 | 0.00 | 30 | 1015.8 |
| 20260905144503 | 94 | 239 | 7.0 | 12.2 | 0.00 | 0.00 | 0.00 | 29 | 1016.1 |
| 20260905143603 | 93 | 252 | 7.8 | 12.2 | 0.00 | 0.00 | 0.00 | 30 | 1016.2 |
| 20260905142703 | 93 | 241 | 7.8 | 13.9 | 0.00 | 0.00 | 0.00 | 30 | 1016.1 |
| 20260905141824 | 94 | 235 | 9.6 | 14.8 | 0.00 | 0.00 | 0.00 | 30 | 1016.1 |
| 20260905140903 | 94 | 244 | 8.7 | 14.8 | 0.00 | 0.00 | 0.00 | 30 | 1016.4 |
| 20260905140003 | 93 | 243 | 8.7 | 14.8 | 0.00 | 0.00 | 0.00 | 30 | 1016.2 |
| 20260905135403 | 93 | 231 | 8.7 | 14.8 | 0.00 | 0.00 | 0.00 | 30 | 1016.4 |
| 20260905134503 | 93 | 224 | 8.7 | 16.5 | 0.00 | 0.00 | 0.00 | 28 | 1016.5 |
| 20260905133603 | 94 | 231 | 8.7 | 13.9 | 0.00 | 0.00 | 0.00 | 28 | 1016.7 |
| 20260905132703 | 92 | 247 | 8.7 | 16.5 | 0.00 | 0.00 | 0.00 | 30 | 1016.7 |
| 20260905131803 | 93 | 212 | 7.8 | 15.6 | 0.00 | 0.00 | 0.00 | 27 | 1016.7 |
| 20260905130903 | 94 | 226 | 7.8 | 13.0 | 0.00 | 0.00 | 0.00 | 26 | 1016.8 |
| 20260905130003 | 93 | 248 | 7.8 | 13.9 | 0.00 | 0.00 | 0.00 | 27 | 1016.8 |
| 20260905125403 | 92 | 240 | 8.7 | 15.6 | 0.00 | 0.00 | 0.00 | 27 | 1016.9 |
| 20260905124503 | 92 | 246 | 7.0 | 12.2 | 0.00 | 0.00 | 0.00 | 28 | 1017.0 |
| 20260905123603 | 93 | 248 | 7.0 | 12.2 | 0.00 | 0.00 | 0.00 | 27 | 1017.1 |
| 20260905122703 | 92 | 233 | 6.1 | 13.0 | 0.00 | 0.00 | 0.00 | 27 | 1017.3 |
| 20260905121824 | 92 | 217 | 6.1 | 13.0 | 0.00 | 0.00 | 0.00 | 28 | 1017.0 |
| 20260905120924 | 92 | 224 | 7.0 | 13.0 | 0.00 | 0.00 | 0.00 | 27 | 1017.7 |
| 20260905120003 | 92 | 251 | 7.0 | 12.2 | 0.00 | 0.00 | 0.00 | 26 | 1017.4 |
| 20260905115403 | 92 | 242 | 7.8 | 14.8 | 0.00 | 0.00 | 0.00 | 26 | 1017.5 |
| 20260905114503 | 92 | 258 | 9.6 | 16.5 | 0.00 | 0.00 | 0.00 | 27 | 1017.4 |
| 20260905113624 | 92 | 257 | 9.6 | 20.9 | 0.00 | 0.00 | 0.00 | 26 | 1017.5 |
| 20260905112703 | 92 | 249 | 10.4 | 18.2 | 0.00 | 0.00 | 0.00 | 25 | 1017.3 |
| 20260905111824 | 92 | 245 | 8.7 | 15.6 | 0.00 | 0.00 | 0.00 | 25 | 1017.4 |
| 20260905110903 | 91 | 252 | 7.0 | 14.8 | 0.00 | 0.00 | 0.00 | 26 | 1017.7 |
| 20260905110003 | 92 | 226 | 5.2 | 12.2 | 0.00 | 0.00 | 0.00 | 27 | 1017.5 |
| 20260905105403 | 92 | 197 | 2.6 | 7.8 | 0.00 | 0.00 | 0.00 | 30 | 1017.3 |
| 20260905104503 | 90 | 208 | 4.3 | 9.6 | 0.00 | 0.00 | 0.00 | 30 | 1017.9 |
| 20260905103603 | 89 | 231 | 3.5 | 10.4 | 0.00 | 0.00 | 0.00 | 31 | 1017.6 |
| 20260905102703 | 88 | 284 | 3.5 | 8.7 | 0.00 | 0.00 | 0.00 | 35 | 1017.7 |
| 20260905101803 | 89 | 265 | 3.5 | 7.0 | 0.00 | 0.00 | 0.00 | 35 | 1017.7 |
| 20260905100924 | 89 | 249 | 3.5 | 6.1 | 0.00 | 0.00 | 0.00 | 34 | 1017.9 |
| 20260905100003 | 90 | 191 | 3.5 | 7.8 | 0.00 | 0.00 | 0.00 | 33 | 1018.1 |
| 20260905095403 | 90 | 168 | 2.6 | 5.2 | 0.00 | 0.00 | 0.00 | 34 | 1017.8 |
| 20260905094524 | 89 | 174 | 3.5 | 5.2 | 0.00 | 0.00 | 0.00 | 35 | 1017.9 |
| 20260905093603 | 88 | 180 | 2.6 | 6.1 | 0.00 | 0.00 | 0.00 | 36 | 1018.0 |
| 20260905092703 | 87 | 185 | 3.5 | 5.2 | 0.00 | 0.00 | 0.00 | 38 | 1018.0 |
| 20260905091803 | 86 | 155 | 2.6 | 6.1 | 0.00 | 0.00 | 0.00 | 39 | 1017.9 |
| 20260905090903 | 85 | 138 | 2.6 | 5.2 | 0.00 | 0.00 | 0.00 | 40 | 1017.9 |
| 20260905090003 | 83 | 145 | 1.7 | 4.3 | 0.00 | 0.00 | 0.00 | 43 | 1018.2 |
| 20260905085403 | 81 | 210 | 0.9 | 3.5 | 0.00 | 0.00 | 0.00 | 44 | 1018.1 |
| 20260905084503 | 81 | 205 | 1.7 | 3.5 | 0.00 | 0.00 | 0.00 | 45 | 1018.3 |
| 20260905083603 | 80 | 194 | 1.7 | 3.5 | 0.00 | 0.00 | 0.00 | 47 | 1018.2 |
| 20260905082703 | 79 | 227 | 1.7 | 4.3 | 0.00 | 0.00 | 0.00 | 48 | 1018.5 |
| 20260905081803 | 79 | 203 | 1.7 | 3.5 | 0.00 | 0.00 | 0.00 | 48 | 1018.4 |
| 20260905080903 | 76 | 234 | 2.6 | 5.2 | 0.00 | 0.00 | 0.00 | 52 | 1018.1 |
| 20260905080003 | 76 | 267 | 2.6 | 5.2 | 0.00 | 0.00 | 0.00 | 55 | 1018.3 |
| 20260905075403 | 76 | 260 | 2.6 | 5.2 | 0.00 | 0.00 | 0.00 | 54 | 1018.5 |
| 20260905074503 | 74 | 249 | 2.6 | 5.2 | 0.00 | 0.00 | 0.00 | 56 | 1018.2 |
| 20260905073624 | 73 | 237 | 2.6 | 4.3 | 0.00 | 0.00 | 0.00 | 57 | 1018.0 |
| 20260905072703 | 73 | 245 | 1.7 | 4.3 | 0.00 | 0.00 | 0.00 | 58 | 1018.3 |
| 20260905071803 | 73 | 214 | 0.9 | 2.6 | 0.00 | 0.00 | 0.00 | 58 | 1018.3 |
| 20260905070903 | 73 | 142 | 0.9 | 2.6 | 0.00 | 0.00 | 0.00 | 58 | 1018.1 |
| 20260905070024 | 74 | 132 | 2.6 | 4.3 | 0.00 | 0.00 | 0.00 | 56 | 1018.1 |